Location: Baia Mare
(47.6567°N, 23.5850°E)
Time: 13:22:38
(UTC+02:00)

ISS - Pass Details

Date: 03 December 2018
Orbit: 401 x 408 km, 51.6° (Epoch: 16 December)

Event Time Altitude Azimuth Distance (km) Brightness Sun altitude
Rises 18:07:53 0° 276° (W) 2,316 1.3 -14.9°
Reaches altitude 10° 18:10:03 10° 284° (WNW) 1,457 -0.1 -15.3°
Maximum altitude 18:13:09 39° 356° (N) 616 -3.1 -15.8°
Enters shadow 18:13:58 33° 33° (NNE) 707 -3.0 -15.9°
